DELTA 1 DEB, 7043

Orbit data source: Space-Track

DELTA 1 DEB, 7043 is space debris in SSO originally from a launch on Tue, 06 Nov 1973 UTC launched from the Air Force Western Test Range (AFWTR). Debris objects in space refer to the collection of defunct objects orbiting the Earth. Examples of debris include non-operational satellites, rocket bodies, and fragments generated from explosions, collisions, or faulty payload assembly.

Loading next visibility...
Identifier
7043, 1973-086AK
Orbit
SSO
Country
Flag of USUS
Related business
Manufacturer
Unknown
Mission
Spacecraft
Bus & Motor
Unknown
Mass
Unknown
Launch date (UTC)
1973-11-06 (53 years ago)
Launch vehicle
Unknown
Launch site
Air Force Western Test Range (AFWTR)
Object type
Payload
Rocket body
Debris
Shape & HBR
Unknown shape, 0.2 m
Radar Cross Section
Medium (>0.1 m² and <1 m²)

Expand to show TLE details & history
Last TLE update: 3 days ago

TLE from 3 days ago
0 DELTA 1 DEB
1 07043U 73086AK  26171.13865326  .00000017  00000-0  25523-3 0  9997
2 07043 102.1236 235.5839 0216386 232.3149 154.1536 12.85400759464961
Epoch: 2026-06-20T03:19Z
TLE epoch observation values (Epoch: 2026-06-20T03:19:39.641Z)
Latitude
26.89614°
Longitude
-88.91368°
Altitude
1,473.439 km
Speed
7.059 km/s
True Right ascension
15h 17m 26s
True Declination
26° 46' 13"
Sunlit
Object was in daylight at epoch
Visualization orbit readout
Latitude
Unknown
Longitude
Unknown
Altitude
Unknown
Speed
Unknown
Apparent Right ascension
Unknown
Apparent Declination
Unknown
Sunlit
N/A
Visualization observer readout
Local Sidereal Time
04:00:00
Azimuth
Unknown
Elevation
Unknown
Doppler factor
Unknown
Orbital elements
Apogee altitude
1,483.873 km
Perigee altitude
1,150.834 km
Semi-major axis
7,695.49 km
Eccentricity
0.02164
Inclination
102.1236°
RAAN
235.5839°
Arg. of periapsis
232.3149°
True anomaly
155.20883°
Mean anomaly
154.1536°
Eccentric anomaly
154.68376°
Mean motion
3.21506 °/min
Orbital period
111.97 mins
BSTAR
0.00025523
Loading maneuver chart data...
Computing Atmospheric mass density...
Loading historical data...
Loading historical data...
Loading historical data...
Loading historical data...
Loading historical data...
Loading historical data...
Loading historical data...

Documentation

Showing up to 5 results
|